Submittal Forms
Current Contests
Recent Contests

Club Activity Tracker - Bavarian Contest Club (from club selection on form)

Recent postings for the selected club or group are listed below. Other than the call used, all calls listed are only those associated with the club or group. Click on a call to see the details of the posting.
Status Key: new=new posting, update=update prior posting, move=change club/group, delete=delete prior posting.

Sort by   for past

TimestampCallContestClassPowerScoreStatus
2021-05-12 21:17:10DL1VDLCWopsTSingle OpHP5,041new6420
2021-05-12 20:16:21DJ1OJCWopsTSingle OpLP2,622new6420
2021-05-12 20:08:11DK3WWCWopsTSingle OpLP9,282new6420
2021-05-12 20:03:409A5MX(DJ4MX,@9A1TT)CWopsTSingle OpHP14,766new6420
2021-05-12 20:02:50DL8TGCWopsTSingle OpQRP1,989new6420
2021-05-12 20:02:45DJ2MXCWopsTSingle OpLP5,040new6420
2021-05-12 20:02:45OL8R(OK1FCJ)CWopsTSingle OpHP4,389new6420
2021-05-12 20:02:42DM6EECWopsTSingle OpQRP3,410new6420
2021-05-12 20:00:54DL6KVACWopsTSingle OpHP7,676new6420
2021-05-12 15:32:29DL6RAICWopsTSingle OpLP2,401new6419
 
2021-05-12 14:39:16DJ2MXCWopsTSingle OpLP121new6419
2021-05-12 14:02:309A5MX(DJ4MX,@9A1TT)CWopsTSingle OpHP18,060new6419
2021-05-12 14:02:10DJ1OJCWopsTSingle OpLP1,763new6419
2021-05-12 14:01:59OL8R(OK1FCJ)CWopsTSingle OpHP9,894new6419
2021-05-12 14:01:47DM6EECWopsTSingle OpQRP961new6419
2021-05-12 14:00:39DL6KVACWopsTSingle OpHP2,500new6419
2021-05-11 14:21:10ON6LEOVolta RTTYMulti-OpHP687,865,815new6411
 (ON6NL,@ON6LEO)
2021-05-09 20:36:14DK2WHVolta RTTYSOSB/15HP5,140,980new6411
2021-05-09 18:30:59OH/M0CFW(JK3GAD,M0CFW,@OH1VR)CQ-MSOABCWLP69,319new6412
2021-05-09 16:09:19W7VJCQ-MSOABCWHP9,801new6412
 
2021-05-09 12:04:02DL6KVACQ-MSOABCWHP515,250new6412
2021-05-07 20:59:30DM6EEKRC SSTSingle OpLP16new6410
2021-05-05 22:02:52OL8R(@OK1FCJ)CWopsTSingle OpHP15,933update6403
2021-05-05 20:11:37OE1TKWCWopsTSingle OpLP121new6403
2021-05-05 20:03:199A5MX(DJ4MX,@9A1TT)CWopsTSingle OpLP11,058new6403
2021-05-05 20:02:53DJ1OJCWopsTSingle OpLP4,662new6403
2021-05-05 20:02:08DJ2MXCWopsTSingle OpLP4,389new6403
2021-05-05 20:00:47DL6KVACWopsTSingle OpHP6,624new6403
2021-05-05 19:49:04DL8TGCWopsTSingle OpLP121new6403
2021-05-05 19:37:18DM6EECWopsTSingle OpLP2,070new6403
 
2021-05-05 14:47:51DJ1OJCWopsTSingle OpLP1,599new6402
2021-05-05 14:04:53HB9BJLCWopsTSingle OpLP182new6402
2021-05-05 14:03:31DL1VDLCWopsTSingle OpHP7,396new6402
2021-05-05 14:02:239A5MX(DJ4MX,@9A1TT)CWopsTSingle OpLP6,132new6402
2021-05-05 14:01:20DL6KVACWopsTSingle OpHP4,900new6402
2021-05-05 13:53:06DL8TGCWopsTSingle OpLP121new6402
2021-05-05 13:43:33DM6EECWopsTSingle OpLP121new6402
2021-05-03 18:42:47ON6LEOARIM/SHP1,711,016new6393
 (ON6NL,@ON6LEO)
2021-05-03 18:28:02ON6LEOSPDX RTTYM/SHP7,878,024new6372
 (ON6NL,@ON6LEO)
2021-05-03 18:14:02DL3DXX(@DF0SAX)InQPSingle OpHP1,334new6395
 
2021-05-03 18:12:32DL3DXX(@DF0SAX)NewEngQPSingle OpHP8,148new6397
2021-05-03 18:10:07DL3DXX(@DF0SAX)DeQPSingle OpHP420new6396
2021-05-03 18:08:26DL3DXX(@DF0SAX)7QPSO(A)CWHP19,584new6394
2021-05-03 10:25:45PA9MARISO CWLP373,813new6393
2021-05-02 18:57:57OH/M0CFW(JK3GAD,M0CFW,@OH1VR)NewEngQPSingle OpHP644new6397
2021-05-02 18:53:40OH/M0CFW(JK3GAD,M0CFW,@OH1VR)7QPSO(A)CWHP507new6394
2021-05-02 18:46:28OH/M0CFW(M0CFW,JK3GAD,@OH1VR)ARISO CWHP92,730new6393
2021-05-02 15:40:41W7VJ7QPSO(A)CWHP61,773new6394
2021-05-02 12:02:22DL6KVAARISO CWHP485,938new6393
2021-04-30 21:22:30DM6EEKRC SSTSingle OpQRP9new6391
 
2021-04-28 21:07:26DL6KVACWopsTSingle OpHP5,329new6384
2021-04-28 21:02:43DM6EECWopsTSingle OpQRP4,020new6385
2021-04-28 20:44:57OE1TKWCWopsTSingle OpLP484new6385
2021-04-28 20:11:27DD5KGCWopsTSingle OpLP598new6385
2021-04-28 20:04:349A5MX(DJ4MX,@9A1TT)CWopsTSingle OpLP6,975new6385
2021-04-28 20:03:31DJ2MXCWopsTSingle OpLP5,063new6385
2021-04-28 20:03:25OL8R(OK1FCJ)CWopsTSingle OpHP14,145new6385
2021-04-28 20:02:21DL8TGCWopsTSingle OpQRP2,728new6385
2021-04-28 20:00:42DL6KVACWopsTSingle OpHP5,694new6385
2021-04-28 17:47:57DM6EECWopsTSingle OpLP196update6384
 
2021-04-28 14:04:00OL8R(OK1FCJ)CWopsTSingle OpHP17,640new6384
2021-04-28 14:02:52DJ2MXCWopsTSingle OpLP1,332new6384
2021-04-28 14:02:22DL6RAICWopsTSingle OpLP3,886new6384
2021-04-28 14:01:329A5MX(DJ4MX,@9A1TT)CWopsTSingle OpLP9,682new6384
2021-04-28 13:50:22DL8TGCWopsTSingle OpLP121new6384
2021-04-27 20:42:49DL3DXX(@DF0SAX)FlQPSOAB(A)CWHP40,788new6375
2021-04-22 07:34:45DD5KGCWopsTSingle OpLP806new6365
2021-04-22 03:33:04DL6KVACWopsTSingle OpHP420new6366
2021-04-22 02:58:52KC1XXCQMM DXM/SHP3,183,345new6356
 (NN1C,WA1Z,W1FV,@KC1XX)
2021-04-21 20:11:59OL8R(OK1FCJ)CWopsTSingle OpHP2,444new6365
 
2021-04-21 20:03:56DJ1OJCWopsTSingle OpLP2,728new6365
2021-04-21 20:02:56DJ2MXCWopsTSingle OpLP4,960new6365
2021-04-21 20:02:46DM6EECWopsTSingle OpQRP3,630new6365
2021-04-21 20:01:559A5MX(DJ4MX,@9A1TT)CWopsTSingle OpLP9,570new6365
2021-04-21 20:00:39DL6KVACWopsTSingle OpHP7,979new6365
2021-04-21 19:59:05OE1TKWCWopsTSingle OpLP196new6365
2021-04-21 15:01:41DJ1OJCWopsTSingle OpLP2,112new6364
2021-04-21 14:04:38OL8R(OK1FCJ)CWopsTSingle OpHP12,810new6364
2021-04-21 14:04:14DL1VDLCWopsTSingle OpLP2,025new6364
2021-04-21 14:03:079A5MX(DJ4MX,@9A1TT)CWopsTSingle OpLP8,976new6364
 
2021-04-21 14:00:43DL6KVACWopsTSingle OpHP3,720new6364
2021-04-21 13:42:59DM6EECWopsTSingle OpLP380new6364
2021-04-21 13:40:26DJ2MXCWopsTSingle OpLP899new6364
2021-04-20 15:45:56DL1MHJWPX SSBSOAB TB-WiresLP914,667new6302
2021-04-18 21:49:51DL6KVACQMM DXSOABHP651,320new6356
2021-04-18 17:35:39DH8BQACQMM DXSOSB/10HP2,184new6356
2021-04-18 10:32:16ON6NLPACCdigiSOABHP10,074new6359
2021-04-18 09:02:55DL3DXX(@DF0SAX)OnQPSO CWHP588new5642
2021-04-18 09:01:33DL3DXX(@DF0SAX)MiQPSingle OpHP216new6357
2021-04-18 03:49:05DL6KVAYU DXSO CWHP33,280new6355
 
2021-04-17 20:26:22DL6KVAHolyland DXSO CWHP4,576new6352
2021-04-15 04:00:57DL6KVACWopsTSingle OpHP1,520new